sat.trackr.live / text

‹ back to catalog

INMARSAT 3-F2

NORAD 24307 · 1996-053A

PAYLOAD ACTIVE UNKNOWN

§ Identity

Operator
Country
IM
Launch date
1996-09-06
Launch site
TYMSC
Launch vehicle
Mass (kg)
RCS (m²)
830.04

Purposes: comms

External: N2YO · Heavens-Above · Gunter

§ Orbital elements

Epoch: 2026-09-10T00:36:42.454368Z

Period
1,440.34 min
Inclination
10.0442°
Eccentricity
0.0005759
Mean motion
0.99976599 rev/d
Perigee alt
35,845.2 km
Apogee alt
35,893.9 km
Semi-major
42,247.7 km
B*
0.0000e+0
RAAN
53.0481°
Arg perigee
113.0796°
Mean anomaly
254.1017°
Rev number
10,977

§ Raw data

INMARSAT 3-F21 24307U 96053A   26253.02549137  .00000054  00000+0  00000+0 0  99952 24307  10.0442  53.0481 0005759 113.0796 254.1017  0.99976599109770

JSON: /api/v1/satellites/24307 · /tle

For live sub-satellite position, see the globe view (requires WebGL).

§ Visibility from observer

Set your observer location to see the next 7 days of passes ≥ 10°. The values pass through the URL so the page stays shareable.

No JS? Fill the form by hand. The geolocation button needs JavaScript.